Location: *
(49.5667°N, 1.3667°W)
Time: 07:57:30
(UTC+00:00)

Cosmos 1766 - Pass Details

Date: 20 September 2019
Orbit: 521 x 546 km, 82.5° (Epoch: 15 October)

Event Time Altitude Azimuth Distance (km) Brightness Sun altitude
Exits shadow 20:15:23 64° 145° (SE) 599 3.2 -20.6°
Maximum altitude 20:15:49 72° 98° (E) 568 3.1 -20.6°
Drops below altitude 10° 20:19:44 10° 14° (NNE) 1,793 6.1 -21.2°
Sets 20:21:54 0° 12° (NNE) 2,684 7.1 -21.5°
